Location: Haliburton Scout Reserve
(45.0900°N, 78.3200°W)
Time: 03:17:09
(UTC-04:00)

PCSat - Pass Details

Date: 28 May 2022
Orbit: 784 x 795 km, 67.1° (Epoch: 24 June)

Event Time Altitude Azimuth Distance (km) Brightness Sun altitude
Rises 02:27:07 0° 327° (NNW) 3,305 13.3 -21.2°
Reaches altitude 10° 02:29:32 10° 327° (NNW) 2,371 12.5 -21.1°
Maximum altitude 02:35:00 86° 240° (WSW) 802 9.5 -20.7°
Enters shadow 02:37:56 28° 153° (SSE) 1,447 10.6 -20.5°
